AFR332 LFPG-KBOS

Flight info

Callsign AFR332
Flight time N/A
Altitude 30000
Route ATREX6E ATREX DCT VESAN DCT RATUK DCT SOVAT/N0472F340 L613 SANDY L722 ICTAM L179 SAWPE DCT OZZIL DCT ARPAK DCT FELCA DCT NICXI DCT OFSOX DCT SLANY DCT DIMUS DCT ABAGU DCT TIPUR DCT NEBIN/M083F360 DCT 5330N02000W 5330N03000W 53N040W 52N050W DCT TUDEP/N0480F380 N526A TOPPS DCT AJJAY OOSHN5
Aircraft B77W/H-SDE1E2E3FGHIJ2J3J4J5M1RWXY/LB1D1

Departure

Time N/A
Airport Charles de Gaulle International Airport (LFPG)

Arrival

Time 2026-05-04 00:57
Airport Boston Logan International Airport (KBOS)
Time Latitude Longitude Altitude Speed Heading
2026-05-03 20:15 53.57820 -22.49422 36266 ft 479 kts 275°
2026-05-03 20:15 53.58041 -22.60178 36259 ft 479 kts 275°
2026-05-03 20:16 53.58260 -22.71431 36266 ft 479 kts 274°
2026-05-03 20:16 53.58470 -22.82717 36264 ft 478 kts 274°
2026-05-03 20:17 53.58667 -22.93836 36268 ft 478 kts 274°
2026-05-03 20:17 53.58855 -23.05068 36269 ft 478 kts 274°
2026-05-03 20:18 53.59031 -23.16237 36269 ft 479 kts 273°
2026-05-03 20:18 53.59197 -23.27363 36270 ft 478 kts 273°
2026-05-03 20:19 53.59347 -23.38198 36278 ft 477 kts 273°
2026-05-03 20:19 53.59492 -23.49306 36277 ft 477 kts 273°
2026-05-03 20:20 53.59627 -23.60456 36275 ft 477 kts 273°
2026-05-03 20:20 53.59752 -23.71611 36278 ft 477 kts 272°
2026-05-03 20:21 53.59866 -23.82757 36277 ft 477 kts 272°
2026-05-03 20:21 53.59970 -23.93950 36295 ft 477 kts 272°
2026-05-03 20:22 53.60064 -24.05087 36291 ft 477 kts 272°
2026-05-03 20:22 53.60147 -24.16311 36284 ft 477 kts 272°
2026-05-03 20:23 53.60219 -24.27417 36289 ft 476 kts 272°
2026-05-03 20:23 53.60281 -24.38503 36292 ft 475 kts 272°
2026-05-03 20:24 53.60333 -24.49572 36295 ft 475 kts 272°
2026-05-03 20:24 53.60375 -24.60636 36294 ft 476 kts 272°
2026-05-03 20:25 53.60406 -24.71738 36295 ft 475 kts 271°
2026-05-03 20:25 53.60426 -24.82742 36305 ft 475 kts 271°
2026-05-03 20:26 53.60437 -24.93808 36302 ft 474 kts 271°
2026-05-03 20:26 53.60438 -25.04863 36303 ft 474 kts 271°
2026-05-03 20:27 53.60429 -25.15690 36309 ft 475 kts 271°
2026-05-03 20:27 53.60410 -25.26581 36313 ft 475 kts 271°
2026-05-03 20:28 53.60380 -25.37592 36308 ft 473 kts 271°
2026-05-03 20:28 53.60341 -25.48433 36314 ft 474 kts 271°
2026-05-03 20:29 53.60292 -25.59233 36317 ft 473 kts 271°
2026-05-03 20:29 53.60233 -25.70350 36318 ft 472 kts 270°
2026-05-03 20:30 53.60163 -25.81378 36318 ft 473 kts 270°
2026-05-03 20:30 53.60084 -25.92302 36323 ft 472 kts 270°
2026-05-03 20:31 53.59993 -26.03374 36323 ft 473 kts 270°
2026-05-03 20:31 53.59893 -26.14369 36323 ft 472 kts 270°
2026-05-03 20:32 53.59783 -26.25410 36325 ft 472 kts 270°
2026-05-03 20:32 53.59663 -26.36403 36336 ft 472 kts 270°
2026-05-03 20:33 53.59533 -26.47417 36332 ft 471 kts 270°
2026-05-03 20:33 53.59392 -26.58448 36330 ft 471 kts 270°
2026-05-03 20:34 53.59239 -26.69664 36332 ft 471 kts 270°
2026-05-03 20:34 53.59075 -26.80854 36338 ft 471 kts 270°
2026-05-03 20:35 53.58902 -26.92030 36350 ft 471 kts 270°
2026-05-03 20:35 53.58717 -27.03238 36343 ft 471 kts 270°
2026-05-03 20:36 53.58524 -27.14342 36342 ft 471 kts 270°
2026-05-03 20:36 53.58316 -27.25670 36347 ft 470 kts 270°
2026-05-03 20:37 53.58099 -27.36886 36350 ft 471 kts 270°
2026-05-03 20:37 53.57872 -27.48100 36345 ft 470 kts 270°
2026-05-03 20:38 53.57635 -27.59286 36350 ft 471 kts 270°
2026-05-03 20:38 53.57389 -27.70429 36347 ft 471 kts 269°
2026-05-03 20:39 53.57134 -27.81490 36352 ft 470 kts 269°
2026-05-03 20:39 53.56873 -27.92419 36349 ft 471 kts 268°
2026-05-03 20:40 53.56602 -28.03299 36352 ft 471 kts 269°
2026-05-03 20:40 53.56320 -28.14238 36352 ft 471 kts 268°
2026-05-03 20:41 53.56045 -28.24538 36357 ft 471 kts 268°
2026-05-03 20:41 53.55743 -28.35509 36361 ft 471 kts 268°
2026-05-03 20:42 53.55431 -28.46466 36364 ft 470 kts 268°
2026-05-03 20:42 53.55115 -28.57229 36367 ft 471 kts 268°
2026-05-03 20:43 53.54797 -28.67727 36368 ft 471 kts 267°
2026-05-03 20:43 53.54449 -28.78900 36373 ft 471 kts 267°
2026-05-03 20:44 53.54093 -28.89978 36369 ft 470 kts 267°
2026-05-03 20:44 53.53762 -29.00015 36371 ft 470 kts 267°
2026-05-03 20:45 53.53381 -29.11236 36360 ft 470 kts 267°
2026-05-03 20:45 53.53010 -29.21910 36359 ft 470 kts 267°
2026-05-03 20:46 53.52621 -29.32805 36357 ft 470 kts 267°
2026-05-03 20:46 53.52221 -29.43710 36357 ft 471 kts 267°
2026-05-03 20:47 53.51811 -29.54636 36361 ft 472 kts 267°
2026-05-03 20:47 53.51391 -29.65556 36370 ft 471 kts 266°
2026-05-03 20:48 53.50957 -29.76570 36365 ft 471 kts 266°
2026-05-03 20:48 53.50510 -29.87638 36373 ft 471 kts 266°
2026-05-03 20:49 53.50073 -29.98259 36368 ft 471 kts 266°
2026-05-03 20:49 53.49849 -30.08960 36377 ft 471 kts 269°
2026-05-03 20:50 53.49787 -30.19757 36371 ft 471 kts 269°
2026-05-03 20:50 53.49698 -30.30719 36374 ft 471 kts 269°
2026-05-03 20:51 53.49589 -30.41697 36377 ft 471 kts 269°
2026-05-03 20:51 53.49464 -30.52755 36375 ft 471 kts 269°
2026-05-03 20:52 53.49325 -30.63933 36371 ft 470 kts 269°
2026-05-03 20:52 53.49175 -30.75051 36380 ft 470 kts 268°
2026-05-03 20:53 53.49014 -30.86177 36375 ft 470 kts 268°
2026-05-03 20:53 53.48842 -30.97304 36375 ft 470 kts 268°
2026-05-03 20:54 53.48661 -31.08305 36378 ft 472 kts 268°
2026-05-03 20:54 53.48372 -31.24741 36377 ft 470 kts 268°
2026-05-03 20:55 53.48166 -31.35788 36397 ft 471 kts 268°
2026-05-03 20:55 53.47947 -31.46909 36386 ft 468 kts 268°
2026-05-03 20:56 53.47722 -31.57851 36391 ft 469 kts 268°
2026-05-03 20:56 53.47486 -31.68850 36388 ft 466 kts 267°
2026-05-03 20:57 53.47240 -31.79810 36383 ft 466 kts 267°
2026-05-03 20:57 53.46982 -31.90884 36385 ft 470 kts 266°
2026-05-03 20:58 53.46717 -32.01790 36398 ft 462 kts 267°
2026-05-03 20:58 53.46443 -32.12690 36384 ft 469 kts 267°
2026-05-03 20:59 53.46157 -32.23665 36356 ft 465 kts 267°
2026-05-03 20:59 53.45864 -32.34507 36383 ft 461 kts 267°
2026-05-03 21:00 53.45665 -32.41681 36349 ft 464 kts 267°
2026-05-03 21:00 53.45246 -32.56304 36378 ft 464 kts 267°
2026-05-03 21:01 53.44919 -32.67272 36366 ft 461 kts 266°
2026-05-03 21:01 53.44587 -32.78134 36378 ft 464 kts 266°
2026-05-03 21:02 53.44240 -32.89106 36369 ft 460 kts 266°
2026-05-03 21:02 53.43891 -32.99853 36357 ft 463 kts 266°
2026-05-03 21:03 53.43527 -33.10750 36388 ft 460 kts 266°
2026-05-03 21:03 53.43161 -33.21423 36385 ft 460 kts 266°
2026-05-03 21:04 53.42781 -33.32209 36387 ft 458 kts 266°
2026-05-03 21:04 53.42394 -33.42948 36386 ft 460 kts 266°
2026-05-03 21:05 53.41992 -33.53797 36378 ft 459 kts 266°
2026-05-03 21:05 53.41584 -33.64574 36398 ft 459 kts 266°
2026-05-03 21:06 53.41169 -33.75245 36373 ft 455 kts 266°
2026-05-03 21:06 53.40743 -33.85964 36402 ft 461 kts 266°
2026-05-03 21:07 53.40309 -33.96657 36398 ft 457 kts 266°
2026-05-03 21:07 53.39866 -34.07320 36391 ft 460 kts 266°
2026-05-03 21:08 53.39411 -34.18041 36391 ft 457 kts 266°
2026-05-03 21:08 53.38950 -34.28671 36389 ft 461 kts 266°
2026-05-03 21:09 53.38477 -34.39375 36365 ft 457 kts 266°
2026-05-03 21:09 53.37999 -34.49968 36350 ft 459 kts 266°
2026-05-03 21:10 53.37507 -34.60651 36369 ft 457 kts 266°
2026-05-03 21:10 53.37005 -34.71348 36399 ft 459 kts 265°
2026-05-03 21:11 53.36496 -34.81981 36383 ft 457 kts 265°
2026-05-03 21:11 53.35982 -34.92530 36355 ft 458 kts 265°
2026-05-03 21:12 53.35459 -35.03073 36376 ft 457 kts 265°
2026-05-03 21:12 53.34925 -35.13644 36365 ft 458 kts 265°
2026-05-03 21:13 53.34379 -35.24263 36378 ft 457 kts 265°
2026-05-03 21:13 53.33853 -35.34319 36397 ft 458 kts 265°
2026-05-03 21:14 53.33292 -35.44864 36417 ft 455 kts 265°
2026-05-03 21:14 53.32727 -35.55307 36390 ft 457 kts 265°
2026-05-03 21:15 53.32154 -35.65747 36377 ft 457 kts 265°
2026-05-03 21:15 53.31566 -35.76276 36408 ft 458 kts 265°
2026-05-03 21:16 53.30970 -35.86773 36370 ft 456 kts 264°
2026-05-03 21:16 53.30365 -35.97263 36415 ft 456 kts 265°
2026-05-03 21:17 53.29857 -36.05967 36367 ft 457 kts 264°
2026-05-03 21:17 53.29133 -36.18173 36427 ft 456 kts 265°
2026-05-03 21:18 53.28816 -36.23438 36326 ft 456 kts 265°
2026-05-03 21:18 53.28519 -36.28348 36384 ft 457 kts 264°
2026-05-03 21:18 53.27905 -36.38377 36396 ft 456 kts 265°
2026-05-03 21:19 53.27256 -36.48853 36362 ft 456 kts 264°
2026-05-03 21:19 53.26598 -36.59298 36368 ft 455 kts 264°
2026-05-03 21:20 53.25931 -36.69757 36363 ft 456 kts 264°
2026-05-03 21:20 53.25259 -36.80141 36386 ft 457 kts 264°
2026-05-03 21:21 53.24573 -36.90588 36338 ft 455 kts 264°
2026-05-03 21:21 53.23880 -37.01019 36407 ft 459 kts 264°
2026-05-03 21:22 53.23185 -37.11322 36369 ft 455 kts 264°
2026-05-03 21:22 53.22472 -37.21769 36390 ft 460 kts 264°
2026-05-03 21:23 53.21750 -37.32200 36409 ft 457 kts 264°
2026-05-03 21:23 53.21024 -37.42566 36381 ft 456 kts 264°
2026-05-03 21:24 53.20291 -37.52890 36352 ft 456 kts 263°
2026-05-03 21:24 53.19545 -37.63280 36358 ft 457 kts 264°
2026-05-03 21:25 53.18790 -37.73647 36397 ft 456 kts 263°
2026-05-03 21:25 53.18040 -37.83838 36331 ft 456 kts 263°
2026-05-03 21:26 53.17268 -37.94194 36343 ft 458 kts 263°
2026-05-03 21:26 53.16482 -38.04614 36369 ft 456 kts 263°
2026-05-03 21:27 53.15690 -38.14991 36341 ft 456 kts 263°
2026-05-03 21:27 53.14887 -38.25404 36363 ft 459 kts 263°
2026-05-03 21:28 53.14074 -38.35806 36392 ft 457 kts 263°
2026-05-03 21:28 53.13253 -38.46192 36375 ft 456 kts 263°
2026-05-03 21:29 53.12421 -38.56608 36353 ft 456 kts 263°
2026-05-03 21:29 53.11583 -38.66964 36385 ft 457 kts 262°
2026-05-03 21:30 53.10748 -38.77187 36353 ft 458 kts 262°
2026-05-03 21:30 53.09891 -38.87557 36384 ft 456 kts 262°
2026-05-03 21:31 53.09024 -38.97939 36360 ft 458 kts 262°
2026-05-03 21:31 53.08156 -39.08229 36343 ft 457 kts 262°
2026-05-03 21:32 53.07275 -39.18553 36354 ft 461 kts 262°
2026-05-03 21:32 53.06397 -39.28744 36363 ft 457 kts 262°
2026-05-03 21:33 53.05503 -39.38999 36378 ft 457 kts 262°
2026-05-03 21:33 53.04599 -39.49271 36381 ft 456 kts 262°
2026-05-03 21:34 53.03684 -39.59569 36344 ft 456 kts 262°
2026-05-03 21:34 53.02769 -39.69759 36342 ft 456 kts 261°
2026-05-03 21:35 53.01843 -39.79974 36345 ft 456 kts 261°
2026-05-03 21:35 53.00916 -39.90089 36317 ft 455 kts 261°
2026-05-03 21:36 52.99973 -40.00289 36378 ft 460 kts 261°
2026-05-03 21:36 52.99361 -40.10003 36372 ft 456 kts 264°
2026-05-03 21:37 52.98799 -40.20374 36328 ft 457 kts 264°
2026-05-03 21:37 52.98218 -40.30633 36324 ft 458 kts 264°
2026-05-03 21:38 52.97638 -40.40594 36316 ft 457 kts 264°
2026-05-03 21:38 52.97051 -40.50439 36310 ft 458 kts 264°
2026-05-03 21:39 52.96425 -40.60752 36301 ft 458 kts 264°
2026-05-03 21:39 52.95782 -40.71169 36318 ft 459 kts 263°
2026-05-03 21:40 52.95155 -40.81179 36309 ft 470 kts 263°
2026-05-03 21:40 52.94514 -40.91272 36301 ft 470 kts 263°
2026-05-03 21:41 52.93836 -41.01793 36317 ft 470 kts 263°
2026-05-03 21:41 52.93154 -41.12223 36304 ft 471 kts 263°
2026-05-03 21:42 52.92453 -41.22807 36253 ft 470 kts 263°
2026-05-03 21:42 52.91740 -41.33429 36290 ft 470 kts 263°
2026-05-03 21:43 52.91023 -41.43963 36292 ft 471 kts 263°
2026-05-03 21:43 52.90293 -41.54542 36284 ft 471 kts 263°
2026-05-03 21:44 52.89579 -41.64753 36286 ft 471 kts 263°
2026-05-03 21:44 52.88834 -41.75287 36285 ft 472 kts 262°
2026-05-03 21:45 52.88070 -41.85943 36288 ft 472 kts 262°
2026-05-03 21:45 52.87299 -41.96565 36282 ft 473 kts 262°
2026-05-03 21:46 52.86526 -42.07068 36285 ft 472 kts 262°
2026-05-03 21:46 52.85770 -42.17226 36274 ft 472 kts 262°
2026-05-03 21:47 52.85004 -42.27407 36277 ft 473 kts 262°
2026-05-03 21:47 52.84227 -42.37607 36274 ft 472 kts 262°
2026-05-03 21:48 52.83457 -42.47592 36269 ft 474 kts 262°
2026-05-03 21:48 52.82634 -42.58143 36261 ft 475 kts 262°
2026-05-03 21:49 52.81802 -42.68704 36279 ft 474 kts 261°
2026-05-03 21:49 52.80944 -42.79449 36249 ft 478 kts 261°
2026-05-03 21:50 52.80112 -42.89758 36262 ft 478 kts 261°
2026-05-03 21:50 52.79252 -43.00296 36239 ft 478 kts 261°
2026-05-03 21:51 52.78386 -43.10783 36518 ft 478 kts 261°
2026-05-03 21:51 52.77949 -43.16044 36162 ft 476 kts 261°
2026-05-03 21:51 52.77509 -43.21294 36200 ft 480 kts 261°
2026-05-03 21:52 52.77087 -43.26312 36513 ft 479 kts 261°
2026-05-03 21:52 52.76653 -43.31451 36087 ft 479 kts 261°
2026-05-03 21:52 52.76212 -43.36630 36413 ft 476 kts 261°
2026-05-03 21:52 52.75790 -43.41565 36277 ft 477 kts 261°
2026-05-03 21:53 52.74897 -43.51941 36219 ft 476 kts 261°
2026-05-03 21:53 52.73985 -43.62417 36211 ft 476 kts 261°
2026-05-03 21:54 52.73048 -43.73069 36206 ft 477 kts 261°
2026-05-03 21:54 52.72098 -43.83746 36220 ft 477 kts 261°
2026-05-03 21:55 52.71143 -43.94374 36203 ft 477 kts 261°
2026-05-03 21:55 52.70190 -44.04874 36226 ft 478 kts 261°
2026-05-03 21:56 52.69206 -44.15609 36193 ft 478 kts 261°
2026-05-03 21:56 52.68224 -44.26214 36199 ft 478 kts 261°
2026-05-03 21:57 52.67225 -44.36886 36213 ft 476 kts 261°
2026-05-03 21:57 52.66227 -44.47445 36195 ft 477 kts 261°
2026-05-03 21:58 52.65214 -44.58047 36207 ft 477 kts 261°
2026-05-03 21:58 52.64196 -44.68614 36206 ft 476 kts 260°
2026-05-03 21:59 52.63157 -44.79287 36198 ft 475 kts 261°
2026-05-03 21:59 52.62114 -44.89905 36182 ft 476 kts 261°
2026-05-03 22:00 52.61090 -45.00227 36191 ft 477 kts 261°
2026-05-03 22:00 52.60039 -45.10722 36180 ft 475 kts 261°
2026-05-03 22:01 52.58998 -45.21022 35927 ft 475 kts 261°
2026-05-03 22:01 52.58457 -45.26343 36132 ft 476 kts 261°
2026-05-03 22:01 52.57955 -45.31258 36164 ft 478 kts 261°
2026-05-03 22:02 52.56879 -45.41714 36162 ft 476 kts 261°
2026-05-03 22:02 52.55777 -45.52332 36160 ft 476 kts 261°
2026-05-03 22:03 52.54734 -45.62281 36151 ft 477 kts 261°
2026-05-03 22:03 52.53616 -45.72870 36147 ft 475 kts 260°
2026-05-03 22:04 52.52539 -45.82971 36150 ft 473 kts 261°
2026-05-03 22:04 52.51434 -45.93256 36146 ft 475 kts 261°
2026-05-03 22:05 52.50318 -46.03550 36143 ft 473 kts 261°
2026-05-03 22:05 52.49194 -46.13830 36140 ft 474 kts 261°
2026-05-03 22:06 52.48076 -46.23973 36137 ft 472 kts 261°
2026-05-03 22:06 52.46940 -46.34187 36137 ft 471 kts 261°
2026-05-03 22:07 52.45806 -46.44305 36124 ft 473 kts 261°
2026-05-03 22:07 52.44667 -46.54390 36132 ft 471 kts 261°
2026-05-03 22:08 52.43536 -46.64312 36128 ft 471 kts 261°
2026-05-03 22:08 52.42404 -46.74178 36124 ft 471 kts 260°
2026-05-03 22:09 52.41288 -46.83829 36116 ft 468 kts 260°
2026-05-03 22:10 52.39523 -46.98941 36082 ft 469 kts 260°
2026-05-03 22:10 52.38331 -47.09045 36086 ft 471 kts 260°
2026-05-03 22:11 52.37146 -47.19021 36100 ft 468 kts 260°
2026-05-03 22:11 52.35935 -47.29128 36060 ft 469 kts 260°
2026-05-03 22:12 52.34732 -47.39103 36327 ft 472 kts 260°
2026-05-03 22:12 52.34123 -47.44119 36712 ft 469 kts 260°
2026-05-03 22:12 52.33510 -47.49148 37122 ft 466 kts 260°
2026-05-03 22:12 52.32919 -47.53985 37442 ft 465 kts 260°
2026-05-03 22:13 52.32322 -47.58848 37694 ft 466 kts 259°
2026-05-03 22:13 52.31712 -47.63809 37936 ft 466 kts 259°
2026-05-03 22:13 52.31094 -47.68809 38061 ft 468 kts 259°
2026-05-03 22:14 52.29826 -47.79005 38078 ft 466 kts 259°
2026-05-03 22:14 52.28582 -47.88939 38071 ft 466 kts 259°
2026-05-03 22:15 52.27334 -47.98833 38072 ft 466 kts 259°
2026-05-03 22:15 52.26060 -48.08865 38069 ft 466 kts 259°
2026-05-03 22:16 52.24785 -48.18830 38063 ft 465 kts 259°
2026-05-03 22:16 52.23514 -48.28692 38051 ft 462 kts 259°
2026-05-03 22:17 52.22237 -48.38530 38012 ft 461 kts 259°
2026-05-03 22:17 52.20979 -48.48159 38029 ft 461 kts 259°
2026-05-03 22:18 52.19665 -48.58145 38053 ft 459 kts 259°
2026-05-03 22:18 52.18375 -48.67883 38030 ft 462 kts 258°
2026-05-03 22:19 52.17039 -48.77898 38047 ft 459 kts 258°
2026-05-03 22:19 52.15754 -48.87464 38048 ft 456 kts 258°
2026-05-03 22:20 52.14478 -48.96901 38011 ft 458 kts 258°
2026-05-03 22:20 52.13197 -49.06315 38022 ft 458 kts 258°
2026-05-03 22:21 52.11863 -49.16062 38032 ft 459 kts 258°
2026-05-03 22:21 52.10526 -49.25755 37995 ft 456 kts 258°
2026-05-03 22:22 52.09184 -49.35430 37990 ft 456 kts 258°
2026-05-03 22:22 52.07812 -49.45253 38011 ft 457 kts 258°
2026-05-03 22:23 52.06434 -49.55054 37982 ft 455 kts 258°
2026-05-03 22:23 52.05088 -49.64563 38005 ft 456 kts 259°
2026-05-03 22:24 52.03709 -49.74250 38016 ft 456 kts 258°
2026-05-03 22:24 52.02306 -49.84042 37994 ft 454 kts 258°
2026-05-03 22:25 52.00893 -49.93843 38017 ft 458 kts 258°
2026-05-03 22:25 51.99021 -50.03364 38009 ft 459 kts 251°
2026-05-03 22:26 51.96892 -50.12528 37997 ft 461 kts 251°
2026-05-03 22:26 51.94817 -50.21310 38005 ft 462 kts 251°
2026-05-03 22:27 51.92632 -50.30430 38002 ft 460 kts 251°
2026-05-03 22:27 51.90365 -50.39801 37985 ft 458 kts 251°
2026-05-03 22:28 51.88114 -50.49037 37997 ft 456 kts 251°
2026-05-03 22:28 51.85894 -50.58100 37961 ft 457 kts 251°
2026-05-03 22:29 51.83628 -50.67304 37969 ft 457 kts 250°
2026-05-03 22:29 51.81275 -50.76818 37985 ft 458 kts 250°
2026-05-03 22:30 51.78940 -50.86214 37950 ft 456 kts 250°
2026-05-03 22:30 51.76587 -50.95640 38015 ft 456 kts 250°
2026-05-03 22:31 51.74267 -51.04900 37983 ft 457 kts 250°
2026-05-03 22:31 51.71875 -51.14401 37965 ft 457 kts 250°
2026-05-03 22:32 51.69530 -51.23677 37941 ft 455 kts 250°
2026-05-03 22:32 51.67230 -51.32739 37940 ft 454 kts 250°
2026-05-03 22:33 51.65002 -51.41484 37966 ft 458 kts 250°
2026-05-03 22:33 51.62592 -51.50904 37929 ft 456 kts 250°
2026-05-03 22:34 51.60234 -51.60082 37927 ft 458 kts 250°
2026-05-03 22:34 51.57817 -51.69449 37950 ft 453 kts 249°
2026-05-03 22:35 51.55424 -51.78690 37936 ft 453 kts 249°
2026-05-03 22:35 51.52990 -51.88045 37948 ft 450 kts 249°
2026-05-03 22:36 51.50588 -51.97245 37912 ft 451 kts 249°
2026-05-03 22:36 51.48133 -52.06605 37972 ft 453 kts 249°
2026-05-03 22:37 51.45741 -52.15688 37994 ft 447 kts 249°
2026-05-03 22:37 51.43351 -52.24732 37931 ft 449 kts 249°
2026-05-03 22:38 51.40960 -52.33741 37942 ft 447 kts 248°
2026-05-03 22:38 51.38526 -52.42873 37972 ft 448 kts 249°
2026-05-03 22:39 51.36119 -52.51873 37931 ft 448 kts 248°
2026-05-03 22:39 51.33726 -52.60783 37928 ft 444 kts 248°
2026-05-03 22:40 51.31423 -52.69325 37903 ft 442 kts 248°
2026-05-03 22:40 51.28981 -52.78351 37918 ft 442 kts 248°
2026-05-03 22:41 51.26593 -52.87142 37924 ft 444 kts 248°
2026-05-03 22:41 51.24147 -52.96112 37900 ft 438 kts 248°
2026-05-03 22:42 51.21706 -53.05030 37905 ft 440 kts 248°
2026-05-03 22:42 51.19257 -53.13944 37920 ft 439 kts 247°
2026-05-03 22:43 51.16870 -53.22597 37917 ft 442 kts 248°
2026-05-03 22:43 51.14267 -53.31446 37920 ft 442 kts 246°
2026-05-03 22:44 51.11608 -53.40228 37908 ft 440 kts 245°
2026-05-03 22:44 51.08989 -53.48869 37910 ft 442 kts 245°
2026-05-03 22:45 51.06361 -53.57526 37904 ft 440 kts 245°
2026-05-03 22:45 51.03699 -53.66267 37897 ft 439 kts 245°
2026-05-03 22:46 51.01039 -53.74977 37909 ft 440 kts 244°
2026-05-03 22:46 50.98370 -53.83684 37897 ft 437 kts 244°
2026-05-03 22:47 50.95815 -53.91995 37907 ft 439 kts 245°
2026-05-03 22:47 50.93214 -54.00423 37903 ft 439 kts 245°
2026-05-03 22:48 50.90665 -54.08655 37906 ft 437 kts 245°
2026-05-03 22:48 50.87988 -54.17273 37900 ft 436 kts 245°
2026-05-03 22:49 50.85331 -54.25799 37900 ft 435 kts 244°
2026-05-03 22:49 50.82674 -54.34290 37900 ft 435 kts 244°
2026-05-03 22:50 50.80026 -54.42725 37893 ft 436 kts 244°
2026-05-03 22:50 50.77320 -54.51318 37884 ft 433 kts 244°
2026-05-03 22:51 50.74651 -54.59761 37889 ft 433 kts 243°
2026-05-03 22:51 50.71935 -54.68324 37899 ft 430 kts 243°
2026-05-03 22:52 50.69255 -54.76742 37892 ft 432 kts 243°
2026-05-03 22:52 50.66546 -54.85228 37896 ft 433 kts 242°
2026-05-03 22:53 50.63858 -54.93615 37896 ft 431 kts 243°
2026-05-03 22:53 50.61142 -55.02063 37900 ft 432 kts 242°
2026-05-03 22:54 50.58463 -55.10365 37892 ft 431 kts 243°
2026-05-03 22:54 50.55760 -55.18716 37867 ft 429 kts 242°
2026-05-03 22:55 50.53108 -55.26882 37877 ft 430 kts 242°
2026-05-03 22:55 50.50397 -55.35200 37889 ft 430 kts 242°
2026-05-03 22:56 50.47718 -55.43396 37883 ft 431 kts 242°
2026-05-03 22:56 50.45007 -55.51661 37884 ft 429 kts 242°
2026-05-03 22:57 50.42303 -55.59877 37872 ft 427 kts 242°
2026-05-03 22:57 50.39556 -55.68195 37873 ft 429 kts 241°
2026-05-03 22:58 50.36832 -55.76418 37856 ft 428 kts 240°
2026-05-03 22:58 50.34042 -55.84810 37866 ft 430 kts 241°
2026-05-03 22:59 50.31307 -55.93016 37850 ft 428 kts 240°
2026-05-03 22:59 50.28528 -56.01320 37860 ft 428 kts 240°
2026-05-03 23:00 50.25800 -56.09449 37846 ft 426 kts 240°
2026-05-03 23:00 50.23057 -56.17592 37835 ft 427 kts 239°
2026-05-03 23:01 50.20313 -56.25715 37824 ft 426 kts 239°
2026-05-03 23:01 50.17627 -56.33639 37810 ft 424 kts 240°
2026-05-03 23:02 50.14864 -56.41767 37827 ft 428 kts 239°
2026-05-03 23:02 50.12172 -56.49659 37811 ft 427 kts 239°
2026-05-03 23:03 50.09393 -56.57784 37821 ft 427 kts 239°
2026-05-03 23:03 50.06555 -56.66050 37801 ft 426 kts 239°
2026-05-03 23:04 50.03703 -56.74331 37841 ft 428 kts 238°
2026-05-03 23:04 50.00856 -56.82575 37814 ft 428 kts 238°
2026-05-03 23:05 49.98032 -56.90722 37812 ft 427 kts 238°
2026-05-03 23:05 49.95211 -56.98835 37786 ft 427 kts 238°
2026-05-03 23:06 49.92368 -57.06984 37753 ft 430 kts 238°
2026-05-03 23:06 49.89519 -57.15127 37732 ft 429 kts 238°
2026-05-03 23:07 49.86638 -57.23334 37751 ft 428 kts 238°
2026-05-03 23:07 49.83743 -57.31554 37738 ft 430 kts 237°
2026-05-03 23:08 49.80864 -57.39703 37746 ft 431 kts 237°
2026-05-03 23:08 49.77952 -57.47919 37739 ft 431 kts 237°
2026-05-03 23:09 49.75227 -57.55584 37725 ft 432 kts 237°
2026-05-03 23:09 49.72422 -57.63452 37723 ft 428 kts 237°
2026-05-03 23:10 49.69746 -57.70933 37720 ft 430 kts 236°
2026-05-03 23:10 49.66900 -57.78867 37707 ft 429 kts 236°
2026-05-03 23:11 49.64204 -57.86360 37718 ft 430 kts 236°
2026-05-03 23:11 49.61391 -57.94153 37709 ft 432 kts 236°
2026-05-03 23:12 49.58638 -58.01759 37723 ft 433 kts 236°
2026-05-03 23:12 49.55848 -58.09448 37718 ft 431 kts 236°
2026-05-03 23:13 49.52967 -58.17357 37721 ft 433 kts 235°
2026-05-03 23:13 49.49978 -58.25541 37727 ft 434 kts 235°
2026-05-03 23:14 49.47067 -58.33488 37715 ft 434 kts 235°
2026-05-03 23:14 49.44114 -58.41522 37692 ft 436 kts 235°
2026-05-03 23:15 49.41183 -58.49473 37707 ft 435 kts 235°
2026-05-03 23:15 49.38217 -58.57492 37716 ft 438 kts 235°
2026-05-03 23:16 49.35374 -58.65162 37698 ft 435 kts 234°
2026-05-03 23:16 49.32556 -58.72734 37700 ft 438 kts 234°
2026-05-03 23:17 49.29604 -58.80649 37699 ft 438 kts 234°
2026-05-03 23:17 49.26602 -58.88670 37666 ft 440 kts 234°
2026-05-03 23:18 49.23653 -58.96528 37683 ft 441 kts 233°
2026-05-03 23:18 49.20601 -59.04635 37667 ft 442 kts 233°
2026-05-03 23:19 49.17556 -59.12700 37653 ft 441 kts 234°
2026-05-03 23:19 49.14480 -59.20816 37657 ft 444 kts 234°
2026-05-03 23:20 49.11398 -59.28928 37647 ft 443 kts 234°
2026-05-03 23:20 49.08339 -59.36953 37605 ft 446 kts 234°
2026-05-03 23:21 49.05166 -59.45251 37642 ft 448 kts 233°
2026-05-03 23:21 49.02147 -59.53124 37617 ft 446 kts 233°
2026-05-03 23:22 48.97580 -59.64988 37616 ft 447 kts 233°
2026-05-03 23:22 48.94415 -59.73177 37642 ft 451 kts 232°
2026-05-03 23:23 48.91373 -59.81026 37622 ft 451 kts 233°
2026-05-03 23:23 48.88175 -59.89251 37683 ft 452 kts 233°
2026-05-03 23:24 48.85229 -59.96811 37663 ft 448 kts 233°
2026-05-03 23:24 48.82060 -60.04908 37677 ft 455 kts 233°
2026-05-03 23:25 48.78984 -60.12753 37625 ft 451 kts 233°
2026-05-03 23:25 48.75816 -60.20802 37626 ft 456 kts 233°
2026-05-03 23:26 48.72684 -60.28740 37629 ft 458 kts 233°
2026-05-03 23:26 48.69441 -60.36930 37644 ft 459 kts 233°
2026-05-03 23:27 48.66294 -60.44862 37625 ft 455 kts 233°
2026-05-03 23:27 48.63054 -60.52998 37593 ft 456 kts 233°
2026-05-03 23:28 48.59815 -60.61103 37641 ft 462 kts 233°
2026-05-03 23:28 48.56603 -60.69123 37616 ft 460 kts 232°
2026-05-03 23:29 48.53550 -60.76718 37639 ft 461 kts 232°
2026-05-03 23:29 48.50402 -60.84533 37539 ft 460 kts 232°
2026-05-03 23:30 48.48755 -60.88609 37655 ft 464 kts 232°
2026-05-03 23:30 48.47166 -60.92534 37649 ft 463 kts 233°
2026-05-03 23:30 48.44012 -61.00319 37590 ft 462 kts 232°
2026-05-03 23:31 48.40645 -61.08598 37579 ft 465 kts 232°
2026-05-03 23:31 48.37304 -61.16790 37596 ft 467 kts 232°
2026-05-03 23:32 48.33826 -61.25293 37644 ft 465 kts 232°
2026-05-03 23:32 48.30392 -61.33658 37633 ft 470 kts 232°
2026-05-03 23:33 48.26904 -61.42135 37532 ft 466 kts 232°
2026-05-03 23:33 48.23476 -61.50431 37580 ft 470 kts 232°
2026-05-03 23:34 48.19986 -61.58857 37571 ft 472 kts 232°
2026-05-03 23:34 48.16484 -61.67285 37607 ft 471 kts 232°
2026-05-03 23:35 48.12960 -61.75740 37605 ft 471 kts 232°
2026-05-03 23:35 48.11251 -61.79831 37468 ft 468 kts 232°
2026-05-03 23:35 48.09564 -61.83863 37581 ft 469 kts 232°
2026-05-03 23:36 48.06038 -61.92267 37644 ft 474 kts 232°
2026-05-03 23:36 48.02507 -62.00660 37536 ft 475 kts 232°
2026-05-03 23:37 47.99005 -62.08962 37514 ft 471 kts 232°
2026-05-03 23:37 47.95525 -62.17181 37569 ft 473 kts 232°
2026-05-03 23:38 47.91981 -62.25525 37575 ft 476 kts 232°
2026-05-03 23:38 47.88375 -62.33993 37551 ft 477 kts 232°
2026-05-03 23:39 47.84777 -62.42415 37499 ft 475 kts 232°
2026-05-03 23:39 47.81210 -62.50737 37531 ft 478 kts 232°
2026-05-03 23:40 47.77607 -62.59119 37530 ft 478 kts 232°
2026-05-03 23:40 47.74073 -62.67314 37520 ft 478 kts 232°
2026-05-03 23:41 47.70622 -62.75295 37518 ft 479 kts 232°
2026-05-03 23:41 47.67184 -62.83222 37581 ft 480 kts 232°
2026-05-03 23:42 47.63625 -62.91402 37533 ft 480 kts 232°
2026-05-03 23:42 47.59951 -62.99821 37522 ft 481 kts 232°
2026-05-03 23:43 47.56287 -63.08195 37516 ft 480 kts 232°
2026-05-03 23:43 47.52616 -63.16553 37505 ft 483 kts 232°
2026-05-03 23:44 47.48960 -63.24856 37519 ft 485 kts 233°
2026-05-03 23:44 47.45267 -63.33219 37510 ft 482 kts 233°
2026-05-03 23:45 47.41560 -63.41584 37510 ft 484 kts 233°
2026-05-03 23:45 47.37958 -63.49690 37520 ft 483 kts 233°
2026-05-03 23:46 47.34280 -63.57941 37504 ft 485 kts 233°
2026-05-03 23:46 47.30919 -63.65461 37520 ft 484 kts 232°
2026-05-03 23:47 47.27197 -63.73763 37536 ft 485 kts 232°
2026-05-03 23:47 47.23691 -63.81562 37515 ft 487 kts 232°
2026-05-03 23:48 47.20053 -63.89630 37511 ft 488 kts 232°
2026-05-03 23:48 47.16317 -63.97891 37502 ft 487 kts 233°
2026-05-03 23:49 47.12577 -64.06138 37494 ft 486 kts 233°
2026-05-03 23:49 47.08859 -64.14311 37487 ft 487 kts 233°
2026-05-03 23:50 47.05723 -64.21182 37514 ft 491 kts 233°
2026-05-03 23:50 47.01354 -64.30732 37508 ft 488 kts 233°
2026-05-03 23:51 46.97573 -64.38969 37506 ft 489 kts 233°
2026-05-03 23:51 46.94091 -64.46533 37507 ft 492 kts 233°
2026-05-03 23:52 46.90423 -64.54479 37524 ft 492 kts 233°
2026-05-03 23:52 46.86828 -64.62245 37507 ft 493 kts 233°
2026-05-03 23:53 46.83068 -64.70345 37520 ft 493 kts 233°
2026-05-03 23:53 46.79498 -64.78014 37519 ft 493 kts 233°
2026-05-03 23:54 46.75726 -64.86091 37525 ft 493 kts 233°
2026-05-03 23:54 46.72089 -64.93860 37531 ft 493 kts 233°
2026-05-03 23:55 46.68303 -65.01921 37538 ft 493 kts 233°
2026-05-03 23:55 46.64677 -65.09621 37570 ft 494 kts 233°
2026-05-03 23:56 46.60848 -65.17731 37545 ft 493 kts 233°
2026-05-03 23:56 46.57241 -65.25348 37554 ft 494 kts 233°
2026-05-03 23:57 46.53379 -65.33481 37523 ft 493 kts 233°
2026-05-03 23:57 46.49774 -65.41049 37536 ft 495 kts 233°
2026-05-03 23:58 46.45912 -65.49135 37542 ft 494 kts 233°
2026-05-03 23:58 46.42271 -65.56739 37545 ft 493 kts 233°
2026-05-03 23:59 46.38435 -65.64726 37519 ft 490 kts 234°
2026-05-03 23:59 46.34725 -65.72429 37549 ft 490 kts 233°
2026-05-04 00:00 46.30902 -65.80345 37570 ft 492 kts 233°
2026-05-04 00:00 46.27202 -65.87985 37525 ft 490 kts 233°
2026-05-04 00:01 46.23407 -65.95800 37540 ft 492 kts 233°
2026-05-04 00:01 46.19729 -66.03352 37532 ft 492 kts 233°
2026-05-04 00:02 46.16121 -66.10741 37548 ft 492 kts 233°
2026-05-04 00:02 46.12259 -66.18629 37535 ft 489 kts 233°
2026-05-04 00:03 46.08405 -66.26480 37572 ft 490 kts 233°
2026-05-04 00:03 46.04577 -66.34254 37563 ft 489 kts 233°
2026-05-04 00:04 46.00914 -66.41673 37569 ft 490 kts 233°
2026-05-04 00:04 45.97183 -66.49213 37584 ft 489 kts 233°
2026-05-04 00:05 45.93245 -66.57147 37594 ft 490 kts 233°
2026-05-04 00:05 45.89300 -66.65072 37601 ft 490 kts 233°
2026-05-04 00:06 45.85399 -66.72889 37608 ft 490 kts 233°
2026-05-04 00:06 45.81644 -66.80391 37586 ft 490 kts 233°
2026-05-04 00:07 45.77903 -66.87845 37574 ft 489 kts 233°
2026-05-04 00:07 45.74075 -66.95453 37583 ft 490 kts 233°
2026-05-04 00:08 45.70293 -67.02951 37581 ft 490 kts 233°
2026-05-04 00:08 45.66438 -67.10570 37570 ft 491 kts 233°
2026-05-04 00:09 45.62623 -67.18092 37588 ft 492 kts 233°
2026-05-04 00:09 45.58714 -67.25780 37590 ft 493 kts 233°
2026-05-04 00:10 45.54863 -67.33331 37594 ft 491 kts 233°
2026-05-04 00:10 45.50882 -67.41117 37609 ft 490 kts 233°
2026-05-04 00:11 45.46954 -67.48778 37611 ft 491 kts 233°
2026-05-04 00:11 45.43010 -67.56450 37623 ft 490 kts 233°
2026-05-04 00:12 45.39156 -67.63926 37616 ft 488 kts 233°
2026-05-04 00:12 45.35138 -67.71364 37614 ft 488 kts 226°
2026-05-04 00:13 45.30444 -67.77600 37628 ft 490 kts 221°
2026-05-04 00:13 45.25500 -67.83754 37611 ft 489 kts 221°
2026-05-04 00:14 45.20647 -67.89685 37639 ft 490 kts 220°
2026-05-04 00:14 45.15639 -67.95726 37636 ft 490 kts 220°
2026-05-04 00:15 45.10657 -68.01687 37635 ft 488 kts 220°
2026-05-04 00:15 45.05597 -68.07709 37634 ft 488 kts 220°
2026-05-04 00:16 45.00668 -68.13550 37651 ft 488 kts 220°
2026-05-04 00:16 44.95627 -68.19503 37658 ft 488 kts 220°
2026-05-04 00:17 44.90627 -68.25391 37655 ft 488 kts 220°
2026-05-04 00:17 44.85604 -68.31291 37680 ft 489 kts 221°
2026-05-04 00:18 44.80675 -68.37066 37681 ft 488 kts 220°
2026-05-04 00:18 44.75682 -68.42902 37689 ft 489 kts 221°
2026-05-04 00:19 44.70640 -68.48782 37694 ft 490 kts 220°
2026-05-04 00:19 44.65677 -68.54555 37679 ft 490 kts 220°
2026-05-04 00:20 44.60620 -68.60424 37689 ft 490 kts 221°
2026-05-04 00:20 44.55548 -68.66297 37704 ft 490 kts 220°
2026-05-04 00:21 44.50449 -68.72187 37736 ft 491 kts 220°
2026-05-04 00:21 44.45497 -68.77894 37682 ft 489 kts 220°
2026-05-04 00:22 44.40396 -68.83759 37712 ft 490 kts 220°
2026-05-04 00:22 44.35418 -68.89470 37714 ft 490 kts 220°
2026-05-04 00:23 44.30327 -68.95298 37709 ft 490 kts 220°
2026-05-04 00:23 44.25453 -69.00864 37735 ft 490 kts 220°
2026-05-04 00:24 44.20413 -69.06606 37708 ft 490 kts 220°
2026-05-04 00:24 44.15553 -69.12131 37718 ft 490 kts 220°
2026-05-04 00:25 44.10389 -69.17989 37719 ft 489 kts 220°
2026-05-04 00:25 44.05272 -69.23779 37722 ft 488 kts 220°
2026-05-04 00:26 44.02742 -69.26637 37413 ft 480 kts 220°
2026-05-04 00:26 44.00194 -69.29512 36673 ft 474 kts 220°
2026-05-04 00:26 43.97752 -69.32265 35967 ft 468 kts 220°
2026-05-04 00:26 43.95393 -69.34920 35245 ft 463 kts 220°
2026-05-04 00:27 43.92896 -69.37728 34476 ft 458 kts 220°
2026-05-04 00:27 43.90401 -69.40531 33655 ft 453 kts 220°
2026-05-04 00:27 43.87988 -69.43240 32905 ft 448 kts 221°
2026-05-04 00:27 43.85545 -69.45978 32178 ft 446 kts 221°
2026-05-04 00:28 43.83098 -69.48721 31392 ft 469 kts 220°
2026-05-04 00:28 43.80465 -69.51669 30604 ft 477 kts 220°
2026-05-04 00:28 43.78120 -69.54288 30028 ft 477 kts 220°
2026-05-04 00:28 43.75543 -69.57143 29375 ft 474 kts 219°
2026-05-04 00:29 43.72821 -69.59538 28793 ft 469 kts 210°
2026-05-04 00:29 43.69758 -69.61355 28325 ft 460 kts 202°
2026-05-04 00:29 43.66711 -69.62817 27940 ft 453 kts 201°
2026-05-04 00:29 43.63725 -69.64214 27539 ft 449 kts 201°
2026-05-04 00:30 43.60704 -69.65612 27133 ft 450 kts 201°
2026-05-04 00:30 43.57630 -69.67024 26706 ft 448 kts 201°
2026-05-04 00:30 43.54618 -69.68398 26288 ft 443 kts 201°
2026-05-04 00:30 43.51682 -69.69732 25885 ft 441 kts 201°
2026-05-04 00:31 43.48714 -69.71076 25493 ft 440 kts 201°
2026-05-04 00:31 43.45816 -69.72384 25098 ft 438 kts 201°
2026-05-04 00:31 43.42822 -69.73733 24681 ft 434 kts 201°
2026-05-04 00:31 43.39856 -69.75065 24265 ft 432 kts 201°
2026-05-04 00:32 43.37020 -69.76338 23868 ft 430 kts 201°
2026-05-04 00:32 43.34154 -69.77622 23465 ft 427 kts 201°
2026-05-04 00:32 43.31342 -69.78880 23080 ft 425 kts 202°
2026-05-04 00:32 43.28559 -69.80125 22714 ft 424 kts 202°
2026-05-04 00:33 43.25795 -69.81358 22335 ft 422 kts 202°
2026-05-04 00:33 43.20066 -69.83912 21548 ft 418 kts 202°
2026-05-04 00:33 43.17295 -69.85145 21173 ft 416 kts 202°
2026-05-04 00:34 43.14468 -69.86401 20779 ft 414 kts 202°
2026-05-04 00:34 43.11658 -69.87649 20406 ft 411 kts 202°
2026-05-04 00:34 43.08882 -69.88881 20031 ft 409 kts 202°
2026-05-04 00:34 43.06076 -69.90125 19625 ft 408 kts 202°
2026-05-04 00:35 43.03392 -69.91313 19263 ft 405 kts 202°
2026-05-04 00:35 43.00734 -69.92489 18894 ft 403 kts 202°
2026-05-04 00:35 42.98043 -69.93680 18539 ft 402 kts 202°
2026-05-04 00:35 42.95372 -69.94860 18214 ft 400 kts 202°
2026-05-04 00:36 42.92765 -69.96012 17908 ft 400 kts 202°
2026-05-04 00:36 42.90059 -69.97206 17533 ft 397 kts 203°
2026-05-04 00:36 42.87425 -69.98367 17175 ft 396 kts 203°
2026-05-04 00:36 42.84816 -69.99515 16815 ft 392 kts 203°
2026-05-04 00:37 42.82206 -70.00665 16469 ft 389 kts 203°
2026-05-04 00:37 42.79699 -70.01766 16128 ft 389 kts 203°
2026-05-04 00:37 42.77207 -70.02862 15780 ft 386 kts 203°
2026-05-04 00:37 42.74655 -70.04008 15457 ft 383 kts 205°
2026-05-04 00:38 42.72140 -70.05257 15409 ft 383 kts 206°
2026-05-04 00:38 42.69606 -70.06549 15256 ft 382 kts 208°
2026-05-04 00:38 42.67287 -70.08253 14816 ft 374 kts 219°
2026-05-04 00:38 42.65322 -70.10525 14390 ft 356 kts 234°
2026-05-04 00:39 42.63927 -70.13128 14331 ft 327 kts 246°
2026-05-04 00:39 42.62866 -70.15807 14301 ft 305 kts 247°
2026-05-04 00:39 42.61915 -70.18230 14191 ft 293 kts 249°
2026-05-04 00:39 42.61014 -70.20679 14073 ft 286 kts 250°
2026-05-04 00:40 42.60174 -70.23123 13948 ft 286 kts 254°
2026-05-04 00:40 42.59489 -70.25690 13762 ft 284 kts 257°
2026-05-04 00:40 42.58859 -70.28213 13556 ft 279 kts 257°
2026-05-04 00:40 42.58235 -70.30707 13394 ft 277 kts 257°
2026-05-04 00:41 42.57603 -70.33218 13225 ft 277 kts 257°
2026-05-04 00:41 42.56972 -70.35716 13042 ft 278 kts 257°
2026-05-04 00:41 42.56337 -70.38225 12846 ft 277 kts 257°
2026-05-04 00:41 42.55721 -70.40652 12672 ft 275 kts 257°
2026-05-04 00:42 42.55085 -70.43162 12492 ft 276 kts 257°
2026-05-04 00:42 42.54449 -70.45660 12287 ft 274 kts 257°
2026-05-04 00:42 42.53840 -70.48059 12115 ft 275 kts 257°
2026-05-04 00:42 42.53229 -70.50459 11937 ft 274 kts 257°
2026-05-04 00:43 42.52622 -70.52892 11792 ft 273 kts 259°
2026-05-04 00:43 42.52057 -70.55384 11606 ft 272 kts 259°
2026-05-04 00:43 42.51517 -70.57770 11466 ft 270 kts 259°
2026-05-04 00:43 42.50966 -70.60176 11293 ft 270 kts 259°
2026-05-04 00:44 42.50406 -70.62605 10974 ft 269 kts 259°
2026-05-04 00:44 42.49840 -70.65033 10494 ft 268 kts 258°
2026-05-04 00:44 42.49262 -70.67402 10100 ft 262 kts 252°
2026-05-04 00:44 42.48277 -70.69469 9790 ft 258 kts 239°
2026-05-04 00:45 42.47142 -70.71407 9106 ft 262 kts 238°
2026-05-04 00:45 42.46024 -70.73300 8506 ft 261 kts 238°
2026-05-04 00:45 42.44909 -70.75182 7990 ft 257 kts 238°
2026-05-04 00:45 42.43813 -70.77032 7433 ft 256 kts 238°
2026-05-04 00:46 42.42685 -70.78934 6880 ft 254 kts 238°
2026-05-04 00:46 42.41591 -70.80782 6491 ft 252 kts 238°
2026-05-04 00:46 42.40487 -70.82643 6033 ft 256 kts 237°
2026-05-04 00:46 42.39162 -70.84187 5717 ft 263 kts 213°
2026-05-04 00:47 42.37383 -70.84726 5659 ft 259 kts 184°
2026-05-04 00:47 42.35612 -70.84396 5634 ft 248 kts 173°
2026-05-04 00:47 42.33999 -70.83781 5368 ft 251 kts 156°
2026-05-04 00:47 42.32556 -70.82317 5048 ft 253 kts 137°
2026-05-04 00:48 42.31286 -70.80627 4790 ft 251 kts 135°
2026-05-04 00:48 42.30039 -70.78946 4526 ft 251 kts 135°
2026-05-04 00:48 42.28796 -70.77286 4268 ft 249 kts 136°
2026-05-04 00:48 42.27554 -70.75635 4010 ft 247 kts 136°
2026-05-04 00:49 42.26289 -70.73987 3727 ft 247 kts 136°
2026-05-04 00:49 42.25037 -70.72360 3474 ft 245 kts 138°
2026-05-04 00:49 42.23606 -70.71191 3186 ft 238 kts 169°
2026-05-04 00:49 42.22042 -70.71184 3003 ft 216 kts 203°
2026-05-04 00:50 42.20899 -70.72250 2983 ft 184 kts 242°
2026-05-04 00:50 42.20511 -70.73774 3002 ft 171 kts 265°
2026-05-04 00:50 42.20317 -70.75349 3004 ft 170 kts 266°
2026-05-04 00:50 42.20120 -70.76923 3000 ft 167 kts 268°
2026-05-04 00:51 42.20260 -70.78449 3004 ft 163 kts 294°
2026-05-04 00:51 42.20864 -70.79716 2997 ft 160 kts 310°
2026-05-04 00:51 42.21635 -70.80800 3002 ft 162 kts 314°
2026-05-04 00:51 42.22427 -70.81844 3000 ft 162 kts 314°
2026-05-04 00:52 42.23244 -70.82918 3000 ft 161 kts 314°
2026-05-04 00:52 42.24036 -70.83966 3004 ft 162 kts 314°
2026-05-04 00:52 42.24838 -70.85028 2949 ft 163 kts 314°
2026-05-04 00:52 42.25632 -70.86082 2742 ft 163 kts 314°
2026-05-04 00:53 42.26444 -70.87159 2526 ft 160 kts 313°
2026-05-04 00:53 42.27152 -70.88100 2338 ft 146 kts 313°
2026-05-04 00:53 42.27829 -70.89002 2154 ft 133 kts 313°
2026-05-04 00:53 42.28492 -70.89883 1986 ft 132 kts 313°
2026-05-04 00:54 42.29156 -70.90766 1812 ft 131 kts 313°
2026-05-04 00:54 42.29798 -70.91621 1635 ft 132 kts 313°
2026-05-04 00:54 42.30457 -70.92498 1452 ft 133 kts 313°
2026-05-04 00:54 42.31119 -70.93379 1269 ft 132 kts 313°
2026-05-04 00:55 42.31780 -70.94259 1078 ft 134 kts 313°
2026-05-04 00:55 42.32431 -70.95126 899 ft 135 kts 313°
2026-05-04 00:55 42.33086 -70.95999 718 ft 138 kts 314°
2026-05-04 00:55 42.33746 -70.96885 524 ft 142 kts 314°
2026-05-04 00:56 42.34427 -70.97784 343 ft 144 kts 314°
2026-05-04 00:56 42.35086 -70.98658 166 ft 137 kts 314°
2026-05-04 00:56 42.35706 -70.99478 19 ft 129 kts 314°
2026-05-04 00:56 42.36216 -71.00165 18 ft 98 kts 315°
2026-05-04 00:57 42.36584 -71.00658 21 ft 66 kts 315°
2026-05-04 00:57 42.36810 -71.00964 21 ft 34 kts 316°
2026-05-04 00:57 42.36892 -71.01073 21 ft 8 kts 315°
2026-05-04 00:57 42.36926 -71.01129 21 ft 9 kts 292°
2026-05-04 00:58 42.36929 -71.01205 21 ft 5 kts 263°
2026-05-04 00:58 42.36924 -71.01246 21 ft 1 kts 260°
2026-05-04 00:58 42.36923 -71.01260 21 ft 3 kts 262°
2026-05-04 00:58 42.36925 -71.01306 21 ft 8 kts 288°
2026-05-04 00:59 42.36962 -71.01372 21 ft 11 kts 314°
2026-05-04 00:59 42.37012 -71.01441 21 ft 11 kts 315°
2026-05-04 00:59 42.37068 -71.01515 20 ft 11 kts 315°
2026-05-04 00:59 42.37118 -71.01583 21 ft 11 kts 314°
2026-05-04 01:00 42.37144 -71.01656 21 ft 9 kts 262°
2026-05-04 01:00 42.37121 -71.01723 21 ft 4 kts 222°
2026-05-04 01:00 42.37096 -71.01749 21 ft 5 kts 213°
2026-05-04 01:00 42.37083 -71.01759 21 ft 1 kts 211°
2026-05-04 01:01 42.37071 -71.01769 21 ft 2 kts 211°
2026-05-04 01:01 42.37055 -71.01781 21 ft 1 kts 208°
2026-05-04 01:01 42.37052 -71.01784 21 ft 0 kts 208°